Back to catalog

COSMOS 1691 DEB

AlivePO
NORAD 16268·DEBRIS·🇷🇺 Russia

Launched Oct 9, 1985 from Plesetsk Cosmodrome

Loading…

Next Passes (next 24 hours)

TLE

FreshSource: Space-Track

Epoch: Sep 14, 2026, 11:17 UTC

1 16268U 85094M   26257.47063440  .00000086  00000-0  45520-3 0  9992
2 16268  82.7124 144.7071 0085743 299.9006 237.1673 12.56655033868035

Track COSMOS 1691 DEB in real time with AllMySat

Download on the App Store